Regional Weather Roundup
Issued by NWS Northern Indiana

Home | Current Version | Previous Version | Graphics & Text | Print | Product List | Glossary On
Versions: 1 2 3 4 5 6 7 8 9 10 11 12 13 14 15 16 17 18 19 20 21 22 23 24 25 26 27 28 29 30 31 32 33 34 35 36 37 38 39 40 41 42 43 44 45 46 47 48 49 50
000
ASUS43 KIWX 101200
RWRIWX

KIWX WEATHER ROUNDUP
NATIONAL WEATHER SERVICE NORTHERN INDIANA
700 AM EST SUN DEC 10 2017

NOTE: "FAIR" INDICATES FEW OR NO CLOUDS BELOW 12,000 FEET WITH NO
SIGNIFICANT WEATHER AND/OR OBSTRUCTIONS TO VISIBILITY.

* THESE STATIONS ARE NOT UNDER NWS QUALITY CONTROL. THEY ALSO MAY NOT
  REPORT WEATHER SUCH AS PRECIPITATION OR FOG.

INZ001>027-101300-
NORTHERN INDIANA

CITY           SKY/WX    TMP DP  RH WIND       PRES   REMARKS
GARY*          MOCLDY    23  14  68 SW8       29.98F WCI  14
SOUTH BEND     CLOUDY    17  14  88 SW12      29.99R WCI   4
6HR MIN TEMP:  16; 6HR MAX TEMP:  26;

GOSHEN         CLOUDY    18  12  77 SW9       29.98S WCI   7
6HR MIN TEMP:  17; 6HR MAX TEMP:  28;

MONTICELLO*    CLOUDY    21  15  77 SW8       30.03S WCI  11
6HR MIN TEMP:  17; 6HR MAX TEMP:  21;

FORT WAYNE     CLOUDY    19  15  84 SW10      30.02S WCI   7
6HR MIN TEMP:  18; 6HR MAX TEMP:  29; 6HR PCP: TRACE;


$$
INZ028>050-101300-
CENTRAL INDIANA

CITY           SKY/WX    TMP DP  RH WIND       PRES   REMARKS
LAFAYETTE      CLOUDY    21  16  81 SW7       30.06R WCI  12
6HR MIN TEMP:  16; 6HR MAX TEMP:  21;

KOKOMO*        CLOUDY    20  16  84 SW10      30.04S WCI   9
6HR MIN TEMP:  14; 6HR MAX TEMP:  21;

MUNCIE*        CLOUDY    21  14  74 SW8       30.05S WCI  11
6HR MIN TEMP:  19; 6HR MAX TEMP:  27;

INDIANAPOLIS   PTCLDY    20  15  81 S9        30.08F WCI   9
6HR MIN TEMP:  19; 6HR MAX TEMP:  22;


$$
MIZ043>046-050>051-056>058-064>065-071>073-077>080-101300-
SOUTHWEST LOWER MICHIGAN

CITY           SKY/WX    TMP DP  RH WIND       PRES   REMARKS
BATTLE CREEK   CLOUDY    24  18  77 W12       29.93R WCI  13
6HR MIN TEMP:  24; 6HR MAX TEMP:  26;

BENTON HARBOR  CLOUDY    23  15  71 S8        29.95S WCI  14
6HR MIN TEMP:  23; 6HR MAX TEMP:  28;

COLDWATER*     CLOUDY    22  17  79 SW14      29.94S WCI   9
6HR MIN TEMP:  22; 6HR MAX TEMP:  26;

HILLSDALE*     CLOUDY    23  18  80 SW10G21   29.92R WCI  12
HOLLAND        CLOUDY    27  19  72 W14       29.92F WCI  16
6HR MIN TEMP:  26; 6HR MAX TEMP:  28;

GRAND RAPIDS   CLOUDY    26  21  81 SW12      29.90S WCI  16
6HR MIN TEMP:  25; 6HR MAX TEMP:  26;

KALAMAZOO      CLOUDY    24  17  74 SW10      29.95R WCI  14
6HR MIN TEMP:  24; 6HR MAX TEMP:  26;

STURGIS*       CLOUDY    19  13  77 SW10      29.96R WCI   8
6HR MIN TEMP:  19; 6HR MAX TEMP:  26;

THREE RIVERS*  CLOUDY    22  15  71 SW7       29.96S WCI  14
6HR MIN TEMP:  22; 6HR MAX TEMP:  28;


$$
OHZ001>008-015>018-024>025-101300-
NORTHWEST OHIO

CITY           SKY/WX    TMP DP  RH WIND       PRES   REMARKS
DEFIANCE       CLOUDY    21  14  74 SW10      30.01R WCI  10
6HR MIN TEMP:  21; 6HR MAX TEMP:  27;

FINDLAY        CLOUDY    25  18  74 SW13      30.00R WCI  14
6HR MIN TEMP:  24; 6HR MAX TEMP:  29;

TOLEDO EXPRESS PTCLDY    26  22  84 SW17      29.97S WCI  13
6HR MIN TEMP:  19; 6HR MAX TEMP:  27;

TOLEDO METCALF CLOUDY    26  22  84 SW10      29.99R WCI  16
6HR MIN TEMP:  23; 6HR MAX TEMP:  29;

LIMA           PTCLDY    22  17  81 SW16      30.02R WCI   8
6HR MIN TEMP:  22; 6HR MAX TEMP:  27;


$$
AND FOR LAKE MICHIGAN COASTAL AND OPEN LAKE BUOY OBSERVATIONS

STATION/POSITION TEMP    WIND        PRES    VSBY  WAVE
                 AIR SEA DIR/SP/G                  HT/PER
                 (F)     (DEG/KT/KT) (MB)    (MI)  (FT/S)
CALUMET HARBOR    23     200/ 10/ 14 1013.9F
MICHIGAN CITY     21     190/ 12/ 14   N/A
BURNS HARBOR      22     200/ 10/ 14 1015.2F
SAINT JOSEPH      28     240/ 17/ 22 1014.6

$$
&&




USA.gov is the U.S. government's official web portal to all federal, state and local government web resources and services.